|
Cosmos 292 Rocket - Orbit
|
Medoc Mountain State Park;
09:49:17
| Home | Info | Passes |
|
View from above orbital plane
|
View from above satellite
|
Ground track
|
The orbit data is extracted from the following two-line orbital elements,
1 04071U 69070B 13140.17766080 .00000639 00000-0 13556-3 0 4736
2 04071 074.0506 089.6616 0012962 089.0953 012.6696 14.61257474320248
| Epoch (UTC): | 20 May 2013 04:15:49 |
| Eccentricity: | 0.0012962 |
| inclination: | 74.0506° |
| perigee height: | 680 km |
| apogee height: | 698 km |
| right ascension of ascending node: | 89.6616° |
| argument of perigee: | 89.0953° |
| revolutions per day: | 14.61257474 |
| mean anomaly at epoch: | 12.6696° |
| orbit number at epoch: | 32024 |
The dashed part of the orbit path shows where the satellite is in the earth's shadow,
|
|